Time,TemperatureF,DewpointF,PressureIn,WindDirection,WindDirectionDegrees,WindSpeedMPH,WindSpeedGustMPH,Humidity,HourlyPrecipIn,Conditions,Clouds,dailyrainin,SolarRadiationWatts/m^2,SoftwareType,DateUTC
2013-04-05 00:02:00,46.8,37.9,30.05,North,355,4.6,4.6,71,0.00,CLR,,0.00,0.0,WeatherDisplay:10.37,2013-04-05 05:02:00,
2013-04-05 00:07:00,46.6,37.7,30.05,NNW,341,10.4,10.4,71,0.00,CLR,,0.00,0.0,WeatherDisplay:10.37,2013-04-05 05:07:00,
2013-04-05 00:13:00,46.5,37.6,30.06,NNW,336,5.8,5.8,71,0.00,CLR,,0.00,0.0,WeatherDisplay:10.37,2013-04-05 05:13:00,
2013-04-05 00:18:00,46.3,37.4,30.06,NNW,331,6.9,6.9,71,0.00,CLR,,0.00,0.0,WeatherDisplay:10.37,2013-04-05 05:18:00,
2013-04-05 00:23:00,46.2,37.3,30.06,NNW,338,4.6,4.6,71,0.00,CLR,,0.00,0.0,WeatherDisplay:10.37,2013-04-05 05:23:00,
2013-04-05 00:28:00,46.0,37.1,30.06,NNW,334,4.6,4.6,71,0.00,CLR,,0.00,0.0,WeatherDisplay:10.37,2013-04-05 05:28:00,
2013-04-05 00:33:00,45.9,37.0,30.06,NNW,347,8.1,8.1,71,0.00,CLR,,0.00,0.0,WeatherDisplay:10.37,2013-04-05 05:33:00,
2013-04-05 00:38:00,45.7,36.8,30.06,NNW,337,4.6,4.6,71,0.00,CLR,,0.00,0.0,WeatherDisplay:10.37,2013-04-05 05:38:00,
2013-04-05 00:43:00,45.5,36.6,30.07,North,350,3.5,3.5,71,0.00,CLR,,0.00,0.0,WeatherDisplay:10.37,2013-04-05 05:43:00,
2013-04-05 00:48:00,45.3,36.4,30.07,North,350,0.0,0.0,71,0.00,CLR,,0.00,0.0,WeatherDisplay:10.37,2013-04-05 05:48:00,
2013-04-05 00:53:00,45.2,36.7,30.07,North,360,0.0,0.0,72,0.00,CLR,,0.00,0.0,WeatherDisplay:10.37,2013-04-05 05:53:00,
2013-04-05 00:58:00,45.0,36.5,30.07,NNE,20,3.5,3.5,72,0.00,CLR,,0.00,0.0,WeatherDisplay:10.37,2013-04-05 05:58:00,
2013-04-05 01:03:00,45.0,36.5,30.07,NNE,20,3.5,3.5,72,0.00,CLR,,0.00,0.0,WeatherDisplay:10.37,2013-04-05 06:03:00,
2013-04-05 01:08:00,44.8,36.3,30.07,NW,324,6.9,6.9,72,0.00,CLR,,0.00,0.0,WeatherDisplay:10.37,2013-04-05 06:08:00,
2013-04-05 01:13:00,44.6,36.1,30.07,NNW,341,4.0,4.0,72,0.00,CLR,,0.00,0.0,WeatherDisplay:10.37,2013-04-05 06:13:00,
2013-04-05 01:18:00,44.5,36.0,30.07,NNW,342,3.5,3.5,72,0.00,CLR,,0.00,0.0,WeatherDisplay:10.37,2013-04-05 06:18:00,
2013-04-05 01:23:00,44.3,35.8,30.07,NNW,342,4.6,4.6,72,0.00,CLR,,0.00,0.0,WeatherDisplay:10.37,2013-04-05 06:23:00,
2013-04-05 01:28:00,44.2,35.7,30.08,NNW,342,5.8,5.8,72,0.00,CLR,,0.00,0.0,WeatherDisplay:10.37,2013-04-05 06:28:00,
2013-04-05 01:33:00,44.0,35.6,30.08,NNW,342,3.5,3.5,72,0.00,CLR,,0.00,0.0,WeatherDisplay:10.37,2013-04-05 06:33:00,
2013-04-05 01:38:00,43.9,35.5,30.08,NNW,342,3.5,3.5,72,0.00,CLR,,0.00,0.0,WeatherDisplay:10.37,2013-04-05 06:38:00,
2013-04-05 01:43:00,43.8,35.4,30.08,NNW,342,0.0,0.0,72,0.00,CLR,,0.00,0.0,WeatherDisplay:10.37,2013-04-05 06:43:00,
2013-04-05 01:48:00,43.6,35.2,30.08,NNW,342,5.0,5.0,72,0.00,CLR,,0.00,0.0,WeatherDisplay:10.37,2013-04-05 06:48:00,
2013-04-05 01:53:00,43.5,35.1,30.08,NNW,342,5.0,5.0,72,0.00,CLR,,0.00,0.0,WeatherDisplay:10.37,2013-04-05 06:53:00,
2013-04-05 01:58:00,43.3,34.9,30.08,NNW,342,0.0,0.0,72,0.00,CLR,,0.00,0.0,WeatherDisplay:10.37,2013-04-05 06:58:00,
2013-04-05 02:03:00,43.3,34.9,30.08,NNW,342,0.0,0.0,72,0.00,CLR,,0.00,0.0,WeatherDisplay:10.37,2013-04-05 07:03:00,
2013-04-05 02:08:00,43.1,34.7,30.08,NNW,342,0.0,0.0,72,0.00,CLR,,0.00,0.0,WeatherDisplay:10.37,2013-04-05 07:08:00,
2013-04-05 02:13:00,42.9,34.5,30.08,NNW,342,0.0,0.0,72,0.00,CLR,,0.00,0.0,WeatherDisplay:10.37,2013-04-05 07:13:00,
2013-04-05 02:18:00,42.8,34.4,30.08,NNW,342,3.5,3.5,72,0.00,CLR,,0.00,0.0,WeatherDisplay:10.37,2013-04-05 07:18:00,
2013-04-05 02:23:00,42.6,34.2,30.08,NNW,342,0.0,0.0,72,0.00,CLR,,0.00,0.0,WeatherDisplay:10.37,2013-04-05 07:23:00,
2013-04-05 02:28:00,42.4,34.0,30.08,NNW,342,3.5,0.0,72,0.00,CLR,,0.00,0.0,WeatherDisplay:10.37,2013-04-05 07:28:00,
2013-04-05 02:33:00,42.1,34.1,30.08,NNW,342,0.0,0.0,73,0.00,CLR,,0.00,0.0,WeatherDisplay:10.37,2013-04-05 07:33:00,
2013-04-05 02:38:00,41.8,33.8,30.08,NNW,342,0.0,0.0,73,0.00,CLR,,0.00,0.0,WeatherDisplay:10.37,2013-04-05 07:38:00,
2013-04-05 02:43:00,41.6,33.6,30.08,NNW,342,0.0,0.0,73,0.00,CLR,,0.00,0.0,WeatherDisplay:10.37,2013-04-05 07:43:00,
2013-04-05 02:48:00,41.1,33.4,30.08,NNW,342,0.0,0.0,74,0.00,CLR,,0.00,0.0,WeatherDisplay:10.37,2013-04-05 07:48:00,
2013-04-05 02:53:00,40.5,33.9,30.08,NNW,342,0.0,0.0,77,0.00,CLR,,0.00,0.0,WeatherDisplay:10.37,2013-04-05 07:53:00,
2013-04-05 02:58:00,40.2,33.6,30.08,NNW,342,0.0,0.0,77,0.00,CLR,,0.00,0.0,WeatherDisplay:10.37,2013-04-05 07:58:00,
2013-04-05 03:03:00,40.0,33.4,30.09,NNW,342,0.0,0.0,77,0.00,CLR,,0.00,0.0,WeatherDisplay:10.37,2013-04-05 08:03:00,
2013-04-05 03:08:00,39.8,33.2,30.09,NNW,342,0.0,0.0,77,0.00,CLR,,0.00,0.0,WeatherDisplay:10.37,2013-04-05 08:08:00,
2013-04-05 03:13:00,39.4,32.8,30.08,NNW,342,0.0,0.0,77,0.00,CLR,,0.00,0.0,WeatherDisplay:10.37,2013-04-05 08:13:00,
2013-04-05 03:18:00,39.1,33.1,30.09,NNW,342,0.0,0.0,79,0.00,CLR,,0.00,0.0,WeatherDisplay:10.37,2013-04-05 08:18:00,
2013-04-05 03:23:00,39.0,33.0,30.09,NNW,342,0.0,0.0,79,0.00,CLR,,0.00,0.0,WeatherDisplay:10.37,2013-04-05 08:23:00,
2013-04-05 03:29:00,38.8,32.8,30.09,NNW,342,0.0,0.0,79,0.00,CLR,,0.00,0.0,WeatherDisplay:10.37,2013-04-05 08:29:00,
2013-04-05 03:34:00,38.6,32.6,30.10,NNW,342,0.0,0.0,79,0.00,CLR,,0.00,0.0,WeatherDisplay:10.37,2013-04-05 08:34:00,
2013-04-05 03:39:00,38.5,32.6,30.10,NNW,342,0.0,0.0,79,0.00,CLR,,0.00,0.0,WeatherDisplay:10.37,2013-04-05 08:39:00,
2013-04-05 03:44:00,38.4,32.5,30.10,NNW,342,0.0,0.0,79,0.00,CLR,,0.00,0.0,WeatherDisplay:10.37,2013-04-05 08:44:00,
2013-04-05 03:49:00,38.4,32.5,30.10,NNW,342,0.0,0.0,79,0.00,CLR,,0.00,0.0,WeatherDisplay:10.37,2013-04-05 08:49:00,
2013-04-05 03:55:00,38.3,32.4,30.10,NNW,342,0.0,0.0,79,0.00,CLR,,0.00,0.0,WeatherDisplay:10.37,2013-04-05 08:55:00,
2013-04-05 04:00:00,38.3,32.4,30.10,NNW,342,0.0,0.0,79,0.00,CLR,,0.00,0.0,WeatherDisplay:10.37,2013-04-05 09:00:00,
2013-04-05 04:05:00,38.2,32.3,30.11,NNW,342,0.0,0.0,79,0.00,CLR,,0.00,0.0,WeatherDisplay:10.37,2013-04-05 09:05:00,
2013-04-05 04:10:00,38.0,32.1,30.11,NNW,342,0.0,0.0,79,0.00,CLR,,0.00,0.0,WeatherDisplay:10.37,2013-04-05 09:10:00,
2013-04-05 04:15:00,37.8,31.9,30.11,NNW,342,0.0,0.0,79,0.00,CLR,,0.00,0.0,WeatherDisplay:10.37,2013-04-05 09:15:00,
2013-04-05 04:20:00,37.7,31.8,30.11,NNW,342,0.0,0.0,79,0.00,CLR,,0.00,0.0,WeatherDisplay:10.37,2013-04-05 09:20:00,
2013-04-05 04:25:00,37.6,31.7,30.11,NNW,342,3.5,3.5,79,0.00,CLR,,0.00,0.0,WeatherDisplay:10.37,2013-04-05 09:25:00,
2013-04-05 04:30:00,37.6,31.7,30.11,NNW,340,3.5,3.5,79,0.00,CLR,,0.00,0.0,WeatherDisplay:10.37,2013-04-05 09:30:00,
2013-04-05 04:35:00,37.6,32.0,30.11,NNW,340,3.5,3.5,80,0.00,CLR,,0.00,0.0,WeatherDisplay:10.37,2013-04-05 09:35:00,
2013-04-05 04:40:00,37.7,32.1,30.12,NNW,340,3.5,3.5,80,0.00,CLR,,0.00,0.0,WeatherDisplay:10.37,2013-04-05 09:40:00,
2013-04-05 04:45:00,37.8,32.2,30.12,NNW,340,3.5,3.5,80,0.00,CLR,,0.00,0.0,WeatherDisplay:10.37,2013-04-05 09:45:00,
2013-04-05 04:50:00,37.9,32.3,30.12,NNW,340,2.3,2.3,80,0.00,CLR,,0.00,0.0,WeatherDisplay:10.37,2013-04-05 09:50:00,
2013-04-05 04:56:00,38.1,32.2,30.13,NNW,340,0.0,0.0,79,0.00,CLR,,0.00,0.0,WeatherDisplay:10.37,2013-04-05 09:56:00,
2013-04-05 05:01:00,38.1,32.2,30.13,NNW,340,0.0,0.0,79,0.00,CLR,,0.00,0.0,WeatherDisplay:10.37,2013-04-05 10:01:00,
2013-04-05 05:06:00,38.1,32.2,30.13,NNW,340,2.3,2.3,79,0.00,CLR,,0.00,0.0,WeatherDisplay:10.37,2013-04-05 10:06:00,
2013-04-05 05:12:00,38.1,31.8,30.13,NNW,340,0.0,0.0,78,0.00,CLR,,0.00,0.0,WeatherDisplay:10.37,2013-04-05 10:12:00,
2013-04-05 05:17:00,38.0,31.7,30.14,NNW,340,0.0,0.0,78,0.00,CLR,,0.00,0.0,WeatherDisplay:10.37,2013-04-05 10:17:00,
2013-04-05 05:22:00,37.9,31.7,30.14,NNW,340,2.3,0.0,78,0.00,CLR,,0.00,0.0,WeatherDisplay:10.37,2013-04-05 10:22:00,
2013-04-05 05:27:00,37.9,31.7,30.14,NNW,340,0.0,0.0,78,0.00,CLR,,0.00,0.0,WeatherDisplay:10.37,2013-04-05 10:27:00,
2013-04-05 05:32:00,37.7,31.5,30.15,NNW,340,0.0,0.0,78,0.00,CLR,,0.00,0.0,WeatherDisplay:10.37,2013-04-05 10:32:00,
2013-04-05 05:37:00,37.7,31.5,30.15,NNW,340,3.5,3.5,78,0.00,CLR,,0.00,0.0,WeatherDisplay:10.37,2013-04-05 10:37:00,
2013-04-05 05:43:00,37.5,31.3,30.15,NNW,340,0.0,0.0,78,0.00,CLR,,0.00,0.0,WeatherDisplay:10.37,2013-04-05 10:43:00,
2013-04-05 05:48:00,37.4,31.2,30.15,NNW,340,3.5,3.5,78,0.00,CLR,,0.00,0.0,WeatherDisplay:10.37,2013-04-05 10:48:00,
2013-04-05 05:54:00,37.3,31.1,30.15,NNW,340,2.3,0.0,78,0.00,CLR,,0.00,0.0,WeatherDisplay:10.37,2013-04-05 10:54:00,
2013-04-05 05:59:00,37.2,31.0,30.15,NNW,340,0.0,0.4,78,0.00,CLR,,0.00,0.0,WeatherDisplay:10.37,2013-04-05 10:59:00,
2013-04-05 06:04:00,37.0,30.8,30.16,NNW,340,0.0,0.0,78,0.00,CLR,,0.00,0.0,WeatherDisplay:10.37,2013-04-05 11:04:00,
2013-04-05 06:09:00,36.9,30.7,30.16,NNW,341,3.5,3.5,78,0.00,CLR,,0.00,0.0,WeatherDisplay:10.37,2013-04-05 11:09:00,
2013-04-05 06:14:00,36.8,30.6,30.16,NNW,341,0.0,0.2,78,0.00,CLR,,0.00,0.0,WeatherDisplay:10.37,2013-04-05 11:14:00,
2013-04-05 06:19:00,36.7,30.5,30.16,NNW,341,0.0,0.0,78,0.00,CLR,,0.00,0.0,WeatherDisplay:10.37,2013-04-05 11:19:00,
2013-04-05 06:24:00,36.6,30.4,30.16,NNW,341,0.0,0.0,78,0.00,CLR,,0.00,0.0,WeatherDisplay:10.37,2013-04-05 11:24:00,
2013-04-05 06:29:00,36.4,30.2,30.17,NNW,341,0.0,0.0,78,0.00,CLR,,0.00,0.0,WeatherDisplay:10.37,2013-04-05 11:29:00,
2013-04-05 06:34:00,36.2,30.0,30.17,NNW,341,0.0,0.0,78,0.00,CLR,,0.00,0.0,WeatherDisplay:10.37,2013-04-05 11:34:00,
2013-04-05 06:39:00,36.1,30.2,30.17,NNW,341,0.0,0.0,79,0.00,OVC,,0.00,7.0,WeatherDisplay:10.37,2013-04-05 11:39:00,
2013-04-05 06:44:00,35.9,30.0,30.17,NNW,341,0.0,0.0,79,0.00,SCT,,0.00,9.0,WeatherDisplay:10.37,2013-04-05 11:44:00,
2013-04-05 06:49:00,35.6,29.7,30.17,NNW,341,0.0,0.0,79,0.00,BKN,,0.00,14.0,WeatherDisplay:10.37,2013-04-05 11:49:00,
2013-04-05 06:54:00,35.4,29.8,30.17,NNW,341,0.0,0.0,80,0.00,BKN,,0.00,23.0,WeatherDisplay:10.37,2013-04-05 11:54:00,
2013-04-05 06:59:00,35.3,29.7,30.18,NNW,341,0.0,0.0,80,0.00,SCT,,0.00,47.0,WeatherDisplay:10.37,2013-04-05 11:59:00,
2013-04-05 07:04:00,35.2,29.6,30.18,NNW,341,0.0,0.0,80,0.00,SCT,,0.00,67.0,WeatherDisplay:10.37,2013-04-05 12:04:00,
2013-04-05 07:09:00,35.3,30.1,30.19,NNW,341,0.0,0.0,81,0.00,SCT,,0.00,83.0,WeatherDisplay:10.37,2013-04-05 12:09:00,
2013-04-05 07:14:00,35.5,30.2,30.19,North,360,3.5,3.5,81,0.00,SCT,,0.00,98.0,WeatherDisplay:10.37,2013-04-05 12:14:00,
2013-04-05 07:19:00,36.2,30.6,30.18,North,360,3.5,3.5,80,0.00,FEW,,0.00,116.0,WeatherDisplay:10.37,2013-04-05 12:19:00,
2013-04-05 07:24:00,37.0,30.8,30.18,NNE,15,4.6,4.6,78,0.00,FEW,,0.00,132.0,WeatherDisplay:10.37,2013-04-05 12:24:00,
2013-04-05 07:29:00,37.7,31.1,30.19,NNE,28,4.6,4.6,77,0.00,FEW,,0.00,146.0,WeatherDisplay:10.37,2013-04-05 12:29:00,
2013-04-05 07:34:00,38.2,31.3,30.18,NE,38,6.0,6.0,76,0.00,FEW,,0.00,163.0,WeatherDisplay:10.37,2013-04-05 12:34:00,
2013-04-05 07:39:00,38.6,31.0,30.18,ENE,59,5.8,5.8,74,0.00,FEW,,0.00,181.0,WeatherDisplay:10.37,2013-04-05 12:39:00,
2013-04-05 07:44:00,38.9,31.0,30.19,NE,51,10.4,10.4,73,0.00,FEW,,0.00,199.0,WeatherDisplay:10.37,2013-04-05 12:44:00,
2013-04-05 07:50:00,39.2,30.9,30.19,NE,40,5.8,5.8,72,0.00,FEW,,0.00,214.0,WeatherDisplay:10.37,2013-04-05 12:50:00,
2013-04-05 07:55:00,39.4,31.1,30.20,ENE,64,5.8,5.8,72,0.00,FEW,,0.00,234.0,WeatherDisplay:10.37,2013-04-05 12:55:00,
2013-04-05 08:00:00,39.7,31.4,30.20,NE,50,6.9,6.9,72,0.00,FEW,,0.00,248.0,WeatherDisplay:10.37,2013-04-05 13:00:00,
2013-04-05 08:05:00,40.0,31.4,30.20,ENE,69,5.8,5.8,71,0.00,FEW,,0.00,220.0,WeatherDisplay:10.37,2013-04-05 13:05:00,
2013-04-05 08:10:00,40.2,31.5,30.20,NE,38,11.0,11.0,71,0.00,SCT,,0.00,188.0,WeatherDisplay:10.37,2013-04-05 13:10:00,
2013-04-05 08:15:00,40.4,31.4,30.20,ENE,69,5.8,5.8,70,0.00,SCT,,0.00,151.0,WeatherDisplay:10.37,2013-04-05 13:15:00,
2013-04-05 08:20:00,40.6,31.6,30.21,NE,53,6.9,6.9,70,0.00,BKN,,0.00,197.0,WeatherDisplay:10.37,2013-04-05 13:20:00,
2013-04-05 08:25:00,40.8,31.4,30.21,ENE,64,10.4,10.4,69,0.00,BKN,,0.00,139.0,WeatherDisplay:10.37,2013-04-05 13:25:00,
2013-04-05 08:30:00,41.1,31.7,30.20,ENE,74,5.8,5.8,69,0.00,BKN,,0.00,301.0,WeatherDisplay:10.37,2013-04-05 13:30:00,
2013-04-05 08:35:00,41.4,31.6,30.21,NE,55,5.8,5.8,68,0.00,SCT,,0.00,332.0,WeatherDisplay:10.37,2013-04-05 13:35:00,
2013-04-05 08:40:00,41.8,31.6,30.21,ENE,64,5.8,5.8,67,0.00,SCT,,0.00,251.0,WeatherDisplay:10.37,2013-04-05 13:40:00,
2013-04-05 08:45:00,42.1,31.2,30.21,ENE,78,15.0,15.0,65,0.00,SCT,,0.00,278.0,WeatherDisplay:10.37,2013-04-05 13:45:00,
2013-04-05 08:50:00,42.3,31.0,30.21,East,88,11.5,11.5,64,0.00,SCT,,0.00,308.0,WeatherDisplay:10.37,2013-04-05 13:50:00,
2013-04-05 08:55:00,42.6,30.9,30.21,ENE,70,10.4,10.4,63,0.00,SCT,,0.00,130.0,WeatherDisplay:10.37,2013-04-05 13:55:00,
2013-04-05 09:00:00,42.8,30.7,30.21,NE,52,12.7,12.7,62,0.00,BKN,,0.00,250.0,WeatherDisplay:10.37,2013-04-05 14:00:00,
2013-04-05 09:05:00,42.9,30.0,30.21,ENE,65,17.3,17.3,60,0.00,BKN,,0.00,306.0,WeatherDisplay:10.37,2013-04-05 14:05:00,
2013-04-05 09:10:00,43.1,30.6,30.21,ENE,64,8.1,8.1,61,0.00,BKN,,0.00,214.0,WeatherDisplay:10.37,2013-04-05 14:10:00,
2013-04-05 09:15:00,43.4,30.8,30.22,East,79,11.5,11.5,61,0.00,BKN,,0.00,269.0,WeatherDisplay:10.37,2013-04-05 14:15:00,
2013-04-05 09:20:00,43.5,30.9,30.22,NE,45,10.4,10.4,61,0.00,SCT,,0.00,424.0,WeatherDisplay:10.37,2013-04-05 14:20:00,
2013-04-05 09:25:00,43.8,30.8,30.22,East,87,5.8,5.8,60,0.00,SCT,,0.00,329.0,WeatherDisplay:10.37,2013-04-05 14:25:00,
2013-04-05 09:30:00,44.0,31.4,30.22,East,85,6.9,6.9,61,0.00,SCT,,0.00,403.0,WeatherDisplay:10.37,2013-04-05 14:30:00,
2013-04-05 09:36:00,44.5,31.5,30.22,ENE,64,10.4,10.4,60,0.00,SCT,,0.00,443.0,WeatherDisplay:10.37,2013-04-05 14:36:00,
2013-04-05 09:41:00,44.9,31.8,30.22,ENE,69,10.0,10.0,60,0.00,SCT,,0.00,455.0,WeatherDisplay:10.37,2013-04-05 14:41:00,
2013-04-05 09:46:00,45.1,31.6,30.22,ENE,70,9.0,9.0,59,0.00,SCT,,0.00,320.0,WeatherDisplay:10.37,2013-04-05 14:46:00,
2013-04-05 09:51:00,45.4,31.5,30.22,East,89,11.5,11.5,58,0.00,SCT,,0.00,396.0,WeatherDisplay:10.37,2013-04-05 14:51:00,
2013-04-05 09:56:00,45.6,31.2,30.22,East,90,10.4,10.4,57,0.00,SCT,,0.00,603.0,WeatherDisplay:10.37,2013-04-05 14:56:00,
2013-04-05 10:01:00,45.4,31.0,30.23,ENE,74,11.5,11.5,57,0.00,FEW,,0.00,512.0,WeatherDisplay:10.37,2013-04-05 15:01:00,
2013-04-05 10:06:00,45.7,31.8,30.23,East,83,3.5,4.0,58,0.00,SCT,,0.00,445.0,WeatherDisplay:10.37,2013-04-05 15:06:00,
2013-04-05 10:11:00,46.0,31.6,30.23,ENE,67,11.5,11.5,57,0.00,SCT,,0.00,422.0,WeatherDisplay:10.37,2013-04-05 15:11:00,
2013-04-05 10:16:00,46.2,31.4,30.23,NE,53,11.5,11.5,56,0.00,SCT,,0.00,485.0,WeatherDisplay:10.37,2013-04-05 15:16:00,
2013-04-05 10:22:00,46.4,31.5,30.23,NE,49,10.4,10.4,56,0.00,SCT,,0.00,696.0,WeatherDisplay:10.37,2013-04-05 15:22:00,
2013-04-05 10:27:00,46.5,31.2,30.23,NE,51,11.5,11.5,55,0.00,FEW,,0.00,714.0,WeatherDisplay:10.37,2013-04-05 15:27:00,
2013-04-05 10:32:00,46.6,31.3,30.23,East,83,9.2,9.2,55,0.00,CLR,,0.00,728.0,WeatherDisplay:10.37,2013-04-05 15:32:00,
2013-04-05 10:37:00,47.0,31.7,30.23,ENE,58,9.2,9.2,55,0.00,CLR,,0.00,744.0,WeatherDisplay:10.37,2013-04-05 15:37:00,
2013-04-05 10:42:00,47.4,31.6,30.22,NE,43,4.6,5.6,54,0.00,CLR,,0.00,754.0,WeatherDisplay:10.37,2013-04-05 15:42:00,
2013-04-05 10:47:00,47.7,31.9,30.23,East,87,11.5,11.5,54,0.00,CLR,,0.00,765.0,WeatherDisplay:10.37,2013-04-05 15:47:00,
2013-04-05 10:52:00,48.4,32.0,30.23,ESE,105,5.8,5.8,53,0.00,CLR,,0.00,779.0,WeatherDisplay:10.37,2013-04-05 15:52:00,
2013-04-05 10:57:00,49.0,31.6,30.23,East,94,12.7,12.7,51,0.00,CLR,,0.00,786.0,WeatherDisplay:10.37,2013-04-05 15:57:00,
2013-04-05 11:02:00,49.4,32.0,30.22,East,83,11.5,11.5,51,0.00,CLR,,0.00,798.0,WeatherDisplay:10.37,2013-04-05 16:02:00,
2013-04-05 11:07:00,49.4,31.0,30.22,East,83,11.5,11.5,49,0.00,CLR,,0.00,810.0,WeatherDisplay:10.37,2013-04-05 16:07:00,
2013-04-05 11:12:00,49.6,31.2,30.21,East,82,10.4,10.4,49,0.00,CLR,,0.00,817.0,WeatherDisplay:10.37,2013-04-05 16:12:00,
2013-04-05 11:17:00,49.9,32.5,30.22,East,92,6.9,6.9,51,0.00,CLR,,0.00,823.0,WeatherDisplay:10.37,2013-04-05 16:17:00,
2013-04-05 11:23:00,50.2,31.2,30.22,ENE,63,11.5,11.5,48,0.00,CLR,,0.00,826.0,WeatherDisplay:10.37,2013-04-05 16:23:00,
2013-04-05 11:28:00,50.1,31.7,30.22,ENE,76,8.1,8.1,49,0.00,CLR,,0.00,840.0,WeatherDisplay:10.37,2013-04-05 16:28:00,
2013-04-05 11:33:00,50.2,31.2,30.21,NE,56,17.3,17.3,48,0.00,CLR,,0.00,853.0,WeatherDisplay:10.37,2013-04-05 16:33:00,
2013-04-05 11:38:00,50.1,31.7,30.21,ENE,57,11.5,11.5,49,0.00,CLR,,0.00,853.0,WeatherDisplay:10.37,2013-04-05 16:38:00,
2013-04-05 11:43:00,50.5,31.5,30.21,ENE,69,10.4,10.4,48,0.00,CLR,,0.00,860.0,WeatherDisplay:10.37,2013-04-05 16:43:00,
2013-04-05 11:48:00,51.1,32.6,30.21,East,80,4.6,4.6,49,0.00,CLR,,0.00,879.0,WeatherDisplay:10.37,2013-04-05 16:48:00,
2013-04-05 11:53:00,51.8,32.2,30.21,East,83,6.9,6.9,47,0.00,CLR,,0.00,888.0,WeatherDisplay:10.37,2013-04-05 16:53:00,
2013-04-05 11:58:00,52.3,31.6,30.20,ENE,64,10.4,10.4,45,0.00,CLR,,0.00,844.0,WeatherDisplay:10.37,2013-04-05 16:58:00,
2013-04-05 12:03:00,51.9,30.1,30.20,ENE,76,6.9,6.9,43,0.00,CLR,,0.00,842.0,WeatherDisplay:10.37,2013-04-05 17:03:00,
2013-04-05 12:08:00,51.8,30.6,30.20,NE,38,11.5,11.5,44,0.00,CLR,,0.00,837.0,WeatherDisplay:10.37,2013-04-05 17:08:00,
2013-04-05 12:13:00,51.7,30.5,30.20,NNE,13,8.1,8.1,44,0.00,FEW,,0.00,918.0,WeatherDisplay:10.37,2013-04-05 17:13:00,
2013-04-05 12:18:00,51.6,30.9,30.20,ENE,57,6.9,6.9,45,0.00,CLR,,0.00,879.0,WeatherDisplay:10.37,2013-04-05 17:18:00,
2013-04-05 12:23:00,52.1,30.8,30.20,NE,42,10.4,10.4,44,0.00,CLR,,0.00,907.0,WeatherDisplay:10.37,2013-04-05 17:23:00,
2013-04-05 12:28:00,52.0,30.7,30.20,NNE,21,9.2,9.2,44,0.00,CLR,,0.00,904.0,WeatherDisplay:10.37,2013-04-05 17:28:00,
2013-04-05 12:33:00,52.1,31.9,30.18,East,79,4.6,4.6,46,0.00,CLR,,0.00,907.0,WeatherDisplay:10.37,2013-04-05 17:33:00,
2013-04-05 12:38:00,52.9,30.4,30.18,NE,42,11.5,11.5,42,0.00,CLR,,0.00,907.0,WeatherDisplay:10.37,2013-04-05 17:38:00,
2013-04-05 12:43:00,53.1,31.7,30.18,East,84,10.4,10.4,44,0.00,CLR,,0.00,914.0,WeatherDisplay:10.37,2013-04-05 17:43:00,
2013-04-05 12:48:00,53.7,30.5,30.17,ESE,115,4.6,4.6,41,0.00,CLR,,0.00,918.0,WeatherDisplay:10.37,2013-04-05 17:48:00,
2013-04-05 12:53:00,54.1,31.5,30.17,East,82,11.5,11.5,42,0.00,CLR,,0.00,921.0,WeatherDisplay:10.37,2013-04-05 17:53:00,
2013-04-05 12:58:00,54.4,31.8,30.17,East,91,3.5,3.5,42,0.00,CLR,,0.00,918.0,WeatherDisplay:10.37,2013-04-05 17:58:00,
2013-04-05 13:03:00,54.6,31.9,30.17,ENE,76,6.9,6.9,42,0.00,CLR,,0.00,889.0,WeatherDisplay:10.37,2013-04-05 18:03:00,
2013-04-05 13:08:00,54.8,32.1,30.17,SE,129,5.0,5.0,42,0.00,CLR,,0.00,919.0,WeatherDisplay:10.37,2013-04-05 18:08:00,
2013-04-05 13:13:00,55.3,32.6,30.17,ENE,71,10.4,10.4,42,0.00,CLR,,0.00,914.0,WeatherDisplay:10.37,2013-04-05 18:13:00,
2013-04-05 13:18:00,55.6,31.0,30.17,East,95,0.0,0.0,39,0.00,CLR,,0.00,918.0,WeatherDisplay:10.37,2013-04-05 18:18:00,
2013-04-05 13:23:00,56.1,31.5,30.16,East,98,5.8,5.8,39,0.00,CLR,,0.00,919.0,WeatherDisplay:10.37,2013-04-05 18:23:00,
2013-04-05 13:28:00,56.5,31.2,30.16,East,86,7.0,7.0,38,0.00,CLR,,0.00,879.0,WeatherDisplay:10.37,2013-04-05 18:28:00,
2013-04-05 13:33:00,56.9,30.9,30.16,East,80,4.6,4.6,37,0.00,CLR,,0.00,904.0,WeatherDisplay:10.37,2013-04-05 18:33:00,
2013-04-05 13:38:00,56.7,30.7,30.15,East,92,3.5,3.5,37,0.00,CLR,,0.00,895.0,WeatherDisplay:10.37,2013-04-05 18:38:00,
2013-04-05 13:43:00,56.9,30.9,30.15,ESE,104,11.5,11.5,37,0.00,CLR,,0.00,838.0,WeatherDisplay:10.37,2013-04-05 18:43:00,
2013-04-05 13:49:00,57.0,29.6,30.15,NE,56,11.5,11.5,35,0.00,CLR,,0.00,770.0,WeatherDisplay:10.37,2013-04-05 18:49:00,
2013-04-05 13:54:00,56.9,30.2,30.15,SE,125,3.5,0.0,36,0.00,CLR,,0.00,849.0,WeatherDisplay:10.37,2013-04-05 18:54:00,
2013-04-05 14:00:00,57.1,31.0,30.15,East,80,4.6,4.6,37,0.00,CLR,,0.00,877.0,WeatherDisplay:10.37,2013-04-05 19:00:00,
2013-04-05 14:05:00,57.5,30.0,30.15,East,83,10.4,10.4,35,0.00,CLR,,0.00,856.0,WeatherDisplay:10.37,2013-04-05 19:05:00,
2013-04-05 14:10:00,57.6,30.8,30.15,ENE,75,3.5,3.5,36,0.00,CLR,,0.00,805.0,WeatherDisplay:10.37,2013-04-05 19:10:00,
2013-04-05 14:15:00,57.6,30.1,30.15,SE,137,1.2,1.2,35,0.00,CLR,,0.00,793.0,WeatherDisplay:10.37,2013-04-05 19:15:00,
2013-04-05 14:20:00,57.6,30.8,30.16,ESE,115,5.8,5.8,36,0.00,FEW,,0.00,696.0,WeatherDisplay:10.37,2013-04-05 19:20:00,
2013-04-05 14:25:00,57.5,30.7,30.15,SE,126,1.0,1.0,36,0.00,FEW,,0.00,721.0,WeatherDisplay:10.37,2013-04-05 19:25:00,
2013-04-05 14:30:00,57.8,31.0,30.15,East,88,1.2,1.2,36,0.00,FEW,,0.00,821.0,WeatherDisplay:10.37,2013-04-05 19:30:00,
2013-04-05 14:36:00,57.8,31.7,30.15,ENE,78,3.5,3.5,37,0.00,CLR,,0.00,788.0,WeatherDisplay:10.37,2013-04-05 19:36:00,
2013-04-05 14:41:00,58.1,31.3,30.15,ENE,76,3.5,3.5,36,0.00,CLR,,0.00,717.0,WeatherDisplay:10.37,2013-04-05 19:41:00,
2013-04-05 14:46:00,58.6,30.3,30.14,SE,127,4.6,4.6,34,0.00,FEW,,0.00,795.0,WeatherDisplay:10.37,2013-04-05 19:46:00,
2013-04-05 14:52:00,58.9,30.6,30.14,SE,127,0.0,0.0,34,0.00,FEW,,0.00,617.0,WeatherDisplay:10.37,2013-04-05 19:52:00,
2013-04-05 14:57:00,59.2,31.5,30.14,ESE,119,1.2,0.0,35,0.00,FEW,,0.00,786.0,WeatherDisplay:10.37,2013-04-05 19:57:00,
2013-04-05 15:02:00,59.5,31.1,30.13,East,90,0.0,0.0,34,0.00,FEW,,0.00,749.0,WeatherDisplay:10.37,2013-04-05 20:02:00,
2013-04-05 15:07:00,59.2,30.1,30.13,ENE,76,0.0,0.0,33,0.00,FEW,,0.00,629.0,WeatherDisplay:10.37,2013-04-05 20:07:00,
2013-04-05 15:12:00,59.0,30.6,30.13,East,79,5.8,5.8,34,0.00,FEW,,0.00,714.0,WeatherDisplay:10.37,2013-04-05 20:12:00,
2013-04-05 15:17:00,58.9,30.6,30.12,ESE,120,3.5,3.5,34,0.00,SCT,,0.00,504.0,WeatherDisplay:10.37,2013-04-05 20:17:00,
2013-04-05 15:22:00,59.0,29.9,30.12,East,90,3.5,3.5,33,0.00,FEW,,0.00,654.0,WeatherDisplay:10.37,2013-04-05 20:22:00,
2013-04-05 15:27:00,59.0,29.2,30.12,East,84,3.5,3.5,32,0.00,SCT,,0.00,640.0,WeatherDisplay:10.37,2013-04-05 20:27:00,
2013-04-05 15:32:00,59.0,29.2,30.12,NE,53,5.8,5.8,32,0.00,FEW,,0.00,744.0,WeatherDisplay:10.37,2013-04-05 20:32:00,
2013-04-05 15:37:00,58.5,30.9,30.12,East,88,3.5,3.5,35,0.00,FEW,,0.00,700.0,WeatherDisplay:10.37,2013-04-05 20:37:00,
2013-04-05 15:42:00,59.0,30.6,30.12,East,101,3.5,3.5,34,0.00,FEW,,0.00,573.0,WeatherDisplay:10.37,2013-04-05 20:42:00,
2013-04-05 15:47:00,59.2,30.8,30.12,East,86,3.5,3.5,34,0.00,FEW,,0.00,615.0,WeatherDisplay:10.37,2013-04-05 20:47:00,
2013-04-05 15:52:00,59.2,29.3,30.11,ENE,76,3.5,0.0,32,0.00,FEW,,0.00,624.0,WeatherDisplay:10.37,2013-04-05 20:52:00,
2013-04-05 15:57:00,59.5,30.3,30.11,ENE,76,0.0,0.0,33,0.00,FEW,,0.00,596.0,WeatherDisplay:10.37,2013-04-05 20:57:00,
2013-04-05 16:02:00,60.3,31.0,30.10,East,79,2.3,2.3,33,0.00,FEW,,0.00,503.0,WeatherDisplay:10.37,2013-04-05 21:02:00,
2013-04-05 16:07:00,60.1,30.1,30.10,East,86,6.9,6.9,32,0.00,SCT,,0.00,325.0,WeatherDisplay:10.37,2013-04-05 21:07:00,
2013-04-05 16:12:00,59.6,29.7,30.10,East,79,9.2,9.2,32,0.00,BKN,,0.00,267.0,WeatherDisplay:10.37,2013-04-05 21:12:00,
2013-04-05 16:18:00,59.0,29.2,30.11,East,82,0.0,0.0,32,0.00,BKN,,0.00,220.0,WeatherDisplay:10.37,2013-04-05 21:18:00,
2013-04-05 16:23:00,59.0,29.2,30.10,ENE,65,4.6,5.3,32,0.00,BKN,,0.00,229.0,WeatherDisplay:10.37,2013-04-05 21:23:00,
2013-04-05 16:28:00,58.2,28.5,30.11,NE,46,10.4,10.4,32,0.00,BKN,,0.00,206.0,WeatherDisplay:10.37,2013-04-05 21:28:00,
2013-04-05 16:33:00,57.7,29.5,30.11,ENE,69,2.3,2.3,34,0.00,BKN,,0.00,183.0,WeatherDisplay:10.37,2013-04-05 21:33:00,
2013-04-05 16:38:00,57.4,28.5,30.11,NE,56,3.5,3.5,33,0.00,BKN,,0.00,192.0,WeatherDisplay:10.37,2013-04-05 21:38:00,
2013-04-05 16:43:00,57.1,29.0,30.11,NE,56,2.3,2.3,34,0.00,BKN,,0.00,265.0,WeatherDisplay:10.37,2013-04-05 21:43:00,
2013-04-05 16:48:00,57.1,28.2,30.11,NE,56,1.2,0.0,33,0.00,BKN,,0.00,274.0,WeatherDisplay:10.37,2013-04-05 21:48:00,
2013-04-05 16:53:00,57.1,28.2,30.11,ENE,68,0.0,0.0,33,0.00,BKN,,0.00,223.0,WeatherDisplay:10.37,2013-04-05 21:53:00,
2013-04-05 16:58:00,57.3,29.9,30.11,ENE,78,4.6,4.6,35,0.00,BKN,,0.00,218.0,WeatherDisplay:10.37,2013-04-05 21:58:00,
2013-04-05 17:03:00,57.5,28.6,30.11,ENE,75,6.9,6.9,33,0.00,BKN,,0.00,225.0,WeatherDisplay:10.37,2013-04-05 22:03:00,
2013-04-05 17:08:00,57.5,28.6,30.11,East,81,0.0,0.0,33,0.00,BKN,,0.00,211.0,WeatherDisplay:10.37,2013-04-05 22:08:00,
2013-04-05 17:13:00,57.5,28.6,30.11,East,80,1.2,1.2,33,0.00,BKN,,0.00,230.0,WeatherDisplay:10.37,2013-04-05 22:13:00,
2013-04-05 17:18:00,57.5,28.6,30.11,ENE,72,3.5,3.5,33,0.00,BKN,,0.00,192.0,WeatherDisplay:10.37,2013-04-05 22:18:00,
2013-04-05 17:23:00,57.4,28.5,30.11,East,79,4.6,4.6,33,0.00,BKN,,0.00,179.0,WeatherDisplay:10.37,2013-04-05 22:23:00,
2013-04-05 17:28:00,57.3,28.4,30.11,NE,55,4.6,4.6,33,0.00,BKN,,0.00,211.0,WeatherDisplay:10.37,2013-04-05 22:28:00,
2013-04-05 17:33:00,57.2,28.3,30.11,East,79,2.3,2.3,33,0.00,BKN,,0.00,250.0,WeatherDisplay:10.37,2013-04-05 22:33:00,
2013-04-05 17:38:00,57.3,29.1,30.11,ENE,69,6.9,6.9,34,0.00,SCT,,0.00,220.0,WeatherDisplay:10.37,2013-04-05 22:38:00,
2013-04-05 17:43:00,57.3,29.1,30.10,East,87,9.2,9.2,34,0.00,SCT,,0.00,193.0,WeatherDisplay:10.37,2013-04-05 22:43:00,
2013-04-05 17:48:00,57.3,29.9,30.10,ENE,74,0.0,0.0,35,0.00,BKN,,0.00,151.0,WeatherDisplay:10.37,2013-04-05 22:48:00,
2013-04-05 17:53:00,57.2,29.1,30.10,ENE,61,3.5,3.5,34,0.00,BKN,,0.00,125.0,WeatherDisplay:10.37,2013-04-05 22:53:00,
2013-04-05 17:58:00,57.0,28.9,30.09,East,93,6.9,6.9,34,0.00,BKN,,0.00,102.0,WeatherDisplay:10.37,2013-04-05 22:58:00,
2013-04-05 18:03:00,56.8,28.0,30.09,East,91,5.8,5.8,33,0.00,BKN,,0.00,93.0,WeatherDisplay:10.37,2013-04-05 23:03:00,
2013-04-05 18:08:00,56.6,28.5,30.09,ENE,78,0.0,0.4,34,0.00,BKN,,0.00,72.0,WeatherDisplay:10.37,2013-04-05 23:08:00,
2013-04-05 18:13:00,56.4,28.3,30.09,ENE,64,5.8,5.8,34,0.00,BKN,,0.00,70.0,WeatherDisplay:10.37,2013-04-05 23:13:00,
2013-04-05 18:18:00,56.4,29.1,30.09,ENE,72,3.5,3.5,35,0.00,BKN,,0.00,74.0,WeatherDisplay:10.37,2013-04-05 23:18:00,
2013-04-05 18:23:00,56.3,29.0,30.09,East,82,3.5,3.5,35,0.00,BKN,,0.00,67.0,WeatherDisplay:10.37,2013-04-05 23:23:00,
2013-04-05 18:28:00,56.2,28.9,30.09,East,84,2.3,2.3,35,0.00,BKN,,0.00,49.0,WeatherDisplay:10.37,2013-04-05 23:28:00,
2013-04-05 18:33:00,56.1,28.8,30.08,NE,56,5.8,5.8,35,0.00,BKN,,0.00,42.0,WeatherDisplay:10.37,2013-04-05 23:33:00,
2013-04-05 18:38:00,55.9,29.3,30.08,ENE,78,5.8,5.8,36,0.00,BKN,,0.00,44.0,WeatherDisplay:10.37,2013-04-05 23:38:00,
2013-04-05 18:43:00,55.7,29.1,30.08,East,80,6.9,6.9,36,0.00,BKN,,0.00,37.0,WeatherDisplay:10.37,2013-04-05 23:43:00,
2013-04-05 18:48:00,55.5,29.0,30.08,East,88,3.5,3.5,36,0.00,BKN,,0.00,25.0,WeatherDisplay:10.37,2013-04-05 23:48:00,
2013-04-05 18:53:00,55.4,28.2,30.08,East,91,3.5,3.5,35,0.00,BKN,,0.00,18.0,WeatherDisplay:10.37,2013-04-05 23:53:00,
2013-04-05 18:58:00,55.3,28.1,30.07,East,94,5.8,5.8,35,0.00,BKN,,0.00,12.0,WeatherDisplay:10.37,2013-04-05 23:58:00,
2013-04-05 19:03:00,55.1,28.6,30.07,East,88,3.5,3.5,36,0.00,BKN,,0.00,9.0,WeatherDisplay:10.37,2013-04-06 00:03:00,
2013-04-05 19:08:00,55.0,29.2,30.07,East,86,3.5,0.0,37,0.00,BKN,,0.00,7.0,WeatherDisplay:10.37,2013-04-06 00:08:00,
2013-04-05 19:13:00,54.9,29.7,30.06,ENE,78,10.4,10.4,38,0.00,BKN,,0.00,5.0,WeatherDisplay:10.37,2013-04-06 00:13:00,
2013-04-05 19:18:00,54.6,30.1,30.07,East,82,5.8,5.8,39,0.00,BKN,,0.00,5.0,WeatherDisplay:10.37,2013-04-06 00:18:00,
2013-04-05 19:23:00,54.4,30.6,30.06,ENE,78,10.4,10.4,40,0.00,OVC,,0.00,0.0,WeatherDisplay:10.37,2013-04-06 00:23:00,
2013-04-05 19:29:00,54.1,30.3,30.05,East,96,6.9,6.9,40,0.00,CLR,,0.00,0.0,WeatherDisplay:10.37,2013-04-06 00:29:00,
2013-04-05 19:34:00,53.9,31.3,30.04,East,86,3.5,3.5,42,0.00,CLR,,0.00,0.0,WeatherDisplay:10.37,2013-04-06 00:34:00,
2013-04-05 19:39:00,53.6,30.4,30.04,ESE,107,8.1,8.1,41,0.00,CLR,,0.00,0.0,WeatherDisplay:10.37,2013-04-06 00:39:00,
2013-04-05 19:44:00,53.4,29.7,30.04,ESE,123,4.0,4.0,40,0.00,CLR,,0.00,0.0,WeatherDisplay:10.37,2013-04-06 00:44:00,
2013-04-05 19:50:00,53.3,29.6,30.05,ESE,110,5.8,5.8,40,0.00,CLR,,0.00,0.0,WeatherDisplay:10.37,2013-04-06 00:50:00,
2013-04-05 19:55:00,53.2,29.5,30.06,ESE,118,0.0,0.5,40,0.00,CLR,,0.00,0.0,WeatherDisplay:10.37,2013-04-06 00:55:00,
2013-04-05 20:00:00,53.1,29.4,30.06,ESE,112,0.0,0.0,40,0.00,CLR,,0.00,0.0,WeatherDisplay:10.37,2013-04-06 01:00:00,
2013-04-05 20:05:00,53.0,29.3,30.07,ESE,108,3.5,3.5,40,0.00,CLR,,0.00,0.0,WeatherDisplay:10.37,2013-04-06 01:05:00,
2013-04-05 20:10:00,52.9,29.8,30.06,ESE,105,3.5,3.5,41,0.00,CLR,,0.00,0.0,WeatherDisplay:10.37,2013-04-06 01:10:00,
2013-04-05 20:15:00,52.8,29.7,30.06,East,80,4.6,4.6,41,0.00,CLR,,0.00,0.0,WeatherDisplay:10.37,2013-04-06 01:15:00,
2013-04-05 20:20:00,52.8,30.3,30.06,East,98,0.0,0.0,42,0.00,CLR,,0.00,0.0,WeatherDisplay:10.37,2013-04-06 01:20:00,
2013-04-05 20:25:00,52.6,30.1,30.06,East,80,0.0,0.0,42,0.00,CLR,,0.00,0.0,WeatherDisplay:10.37,2013-04-06 01:25:00,
2013-04-05 20:30:00,52.5,30.6,30.06,East,92,0.0,0.0,43,0.00,CLR,,0.00,0.0,WeatherDisplay:10.37,2013-04-06 01:30:00,
2013-04-05 20:35:00,52.4,30.5,30.06,East,84,3.5,3.5,43,0.00,CLR,,0.00,0.0,WeatherDisplay:10.37,2013-04-06 01:35:00,
2013-04-05 20:40:00,52.2,30.9,30.06,East,83,3.5,3.5,44,0.00,CLR,,0.00,0.0,WeatherDisplay:10.37,2013-04-06 01:40:00,
2013-04-05 20:46:00,52.0,31.3,30.05,East,83,3.5,3.5,45,0.00,CLR,,0.00,0.0,WeatherDisplay:10.37,2013-04-06 01:46:00,
2013-04-05 20:52:00,51.8,31.1,30.06,East,81,4.6,4.6,45,0.00,CLR,,0.00,0.0,WeatherDisplay:10.37,2013-04-06 01:52:00,
2013-04-05 20:57:00,51.6,31.5,30.05,East,84,3.5,3.5,46,0.00,CLR,,0.00,0.0,WeatherDisplay:10.37,2013-04-06 01:57:00,
2013-04-05 21:02:00,51.4,31.8,30.05,East,86,2.3,0.0,47,0.00,CLR,,0.00,0.0,WeatherDisplay:10.37,2013-04-06 02:02:00,
2013-04-05 21:07:00,51.2,31.6,30.05,East,90,6.0,6.0,47,0.00,CLR,,0.00,0.0,WeatherDisplay:10.37,2013-04-06 02:07:00,
2013-04-05 21:12:00,51.1,31.6,30.05,East,79,0.0,0.0,47,0.00,CLR,,0.00,0.0,WeatherDisplay:10.37,2013-04-06 02:12:00,
2013-04-05 21:17:00,50.9,31.4,30.06,East,83,3.5,3.5,47,0.00,CLR,,0.00,0.0,WeatherDisplay:10.37,2013-04-06 02:17:00,
2013-04-05 21:22:00,50.8,31.3,30.06,ENE,78,5.8,5.8,47,0.00,CLR,,0.00,0.0,WeatherDisplay:10.37,2013-04-06 02:22:00,
2013-04-05 21:27:00,50.6,31.6,30.06,East,84,5.8,5.8,48,0.00,CLR,,0.00,0.0,WeatherDisplay:10.37,2013-04-06 02:27:00,
2013-04-05 21:32:00,50.4,31.4,30.06,ENE,78,9.2,9.2,48,0.00,CLR,,0.00,0.0,WeatherDisplay:10.37,2013-04-06 02:32:00,
2013-04-05 21:37:00,50.1,31.2,30.06,East,85,6.9,6.9,48,0.00,CLR,,0.00,0.0,WeatherDisplay:10.37,2013-04-06 02:37:00,
2013-04-05 21:43:00,49.8,31.4,30.06,East,79,4.6,5.2,49,0.00,CLR,,0.00,0.0,WeatherDisplay:10.37,2013-04-06 02:43:00,
2013-04-05 21:48:00,49.5,31.1,30.06,ESE,109,9.2,9.2,49,0.00,CLR,,0.00,0.0,WeatherDisplay:10.37,2013-04-06 02:48:00,
2013-04-05 21:53:00,49.4,30.5,30.06,East,82,3.5,3.7,48,0.00,CLR,,0.00,0.0,WeatherDisplay:10.37,2013-04-06 02:53:00,
2013-04-05 21:58:00,49.3,29.9,30.06,East,90,5.8,5.8,47,0.00,CLR,,0.00,0.0,WeatherDisplay:10.37,2013-04-06 02:58:00,
2013-04-05 22:03:00,49.2,30.3,30.06,East,101,11.5,11.5,48,0.00,CLR,,0.00,0.0,WeatherDisplay:10.37,2013-04-06 03:03:00,
2013-04-05 22:08:00,49.0,29.6,30.06,East,100,5.8,5.8,47,0.00,CLR,,0.00,0.0,WeatherDisplay:10.37,2013-04-06 03:08:00,
2013-04-05 22:13:00,48.7,29.4,30.06,East,96,8.1,8.1,47,0.00,CLR,,0.00,0.0,WeatherDisplay:10.37,2013-04-06 03:13:00,
2013-04-05 22:18:00,48.5,29.2,30.06,SE,127,5.8,5.8,47,0.00,CLR,,0.00,0.0,WeatherDisplay:10.37,2013-04-06 03:18:00,
2013-04-05 22:23:00,48.1,29.3,30.06,East,85,6.9,6.9,48,0.00,CLR,,0.00,0.0,WeatherDisplay:10.37,2013-04-06 03:23:00,
2013-04-05 22:28:00,47.8,29.0,30.05,ESE,113,6.9,6.9,48,0.00,CLR,,0.00,0.0,WeatherDisplay:10.37,2013-04-06 03:28:00,
2013-04-05 22:33:00,47.6,28.9,30.06,ESE,107,6.9,6.9,48,0.00,CLR,,0.00,0.0,WeatherDisplay:10.37,2013-04-06 03:33:00,
2013-04-05 22:38:00,47.4,28.7,30.06,ESE,111,9.2,9.2,48,0.00,CLR,,0.00,0.0,WeatherDisplay:10.37,2013-04-06 03:38:00,
2013-04-05 22:43:00,47.3,28.6,30.06,East,88,6.9,6.9,48,0.00,CLR,,0.00,0.0,WeatherDisplay:10.37,2013-04-06 03:43:00,
2013-04-05 22:48:00,47.1,28.9,30.06,East,98,5.0,5.0,49,0.00,CLR,,0.00,0.0,WeatherDisplay:10.37,2013-04-06 03:48:00,
2013-04-05 22:53:00,46.8,28.6,30.06,ESE,110,5.8,5.8,49,0.00,CLR,,0.00,0.0,WeatherDisplay:10.37,2013-04-06 03:53:00,
2013-04-05 22:59:00,46.5,28.3,30.05,ESE,105,5.8,5.8,49,0.00,CLR,,0.00,0.0,WeatherDisplay:10.37,2013-04-06 03:59:00,
2013-04-05 23:00:00,46.4,27.8,30.05,ENE,76,6.9,6.9,48,0.00,CLR,,0.00,0.0,WeatherDisplay:10.37,2013-04-06 04:00:00,
2013-04-05 23:05:00,46.2,27.6,30.06,East,101,6.9,6.9,48,0.00,CLR,,0.00,0.0,WeatherDisplay:10.37,2013-04-06 04:05:00,
2013-04-05 23:10:00,46.0,27.9,30.05,East,94,6.9,6.9,49,0.00,CLR,,0.00,0.0,WeatherDisplay:10.37,2013-04-06 04:10:00,
2013-04-05 23:15:00,45.7,27.6,30.05,ESE,109,11.5,11.5,49,0.00,CLR,,0.00,0.0,WeatherDisplay:10.37,2013-04-06 04:15:00,
2013-04-05 23:20:00,45.5,27.9,30.05,East,99,9.2,9.2,50,0.00,CLR,,0.00,0.0,WeatherDisplay:10.37,2013-04-06 04:20:00,
2013-04-05 23:25:00,45.3,27.7,30.05,East,90,6.9,6.9,50,0.00,CLR,,0.00,0.0,WeatherDisplay:10.37,2013-04-06 04:25:00,
2013-04-05 23:30:00,45.1,27.6,30.05,ESE,110,6.9,6.9,50,0.00,CLR,,0.00,0.0,WeatherDisplay:10.37,2013-04-06 04:30:00,
2013-04-05 23:35:00,45.0,27.5,30.05,ESE,106,4.6,4.8,50,0.00,CLR,,0.00,0.0,WeatherDisplay:10.37,2013-04-06 04:35:00,
2013-04-05 23:40:00,44.9,26.9,30.05,ESE,111,15.0,15.0,49,0.00,CLR,,0.00,0.0,WeatherDisplay:10.37,2013-04-06 04:40:00,
2013-04-05 23:45:00,44.8,26.8,30.04,SE,124,9.2,9.2,49,0.00,CLR,,0.00,0.0,WeatherDisplay:10.37,2013-04-06 04:45:00,
2013-04-05 23:50:00,44.6,26.1,30.04,ESE,105,10.4,10.4,48,0.00,CLR,,0.00,0.0,WeatherDisplay:10.37,2013-04-06 04:50:00,
2013-04-05 23:55:00,44.5,25.5,30.04,ESE,105,9.2,9.2,47,0.00,CLR,,0.00,0.0,WeatherDisplay:10.37,2013-04-06 04:55:00,